Weather observations for the past three days for
Kuparuk, Ugnu-Kuparuk Airport
Imperial (Metric)
Date Time (akdt) Wind (mph) Vis. (mi.) Weather Sky Cond. Temperature (ºF) Relative Humidity Wind Chill (°F) Heat Index (°F) Pressure Precipitation (in)
Air Dwpt 6 hour altimeter (in) sea level (mb) 1 hr 3 hr 6 hr
Max. Min.
04 18:45 E 20 7.00 Overcast OVC005 24.8 24.8 100% 12 30.05 0.0
04 17:45 E 20 7.00 Overcast OVC005 26.6 24.8 93% 14 30.06 0.0
04 16:45 E 20 7.00 Mostly Cloudy BKN005 24.8 24.8 100% 12 30.07 0.0
04 15:45 E 20 10.00 Mostly Cloudy SCT014 BKN034 26.6 24.8 93% 14 30.1 0.0
04 14:45 E 20 10.00 Mostly Cloudy SCT005 BKN035 24.8 24.8 100% 12 30.11 0.0
04 13:45 E 18 10.00 Mostly Cloudy SCT005 BKN040 26.6 24.8 93% 14 30.13 0.0
04 12:45 E 17 10.00 Mostly Cloudy SCT005 BKN037 24.8 24.8 100% 12 30.14 0.0
04 11:45 E 14 10.00 Mostly Cloudy SCT005 BKN015 BKN040 24.8 24.8 100% 14 30.15 0.0
04 10:45 E 15 10.00 Mostly Cloudy SCT005 BKN050 BKN080 24.8 23 93% 13 30.16 0.0
04 09:45 E 12 10.00 Mostly Cloudy BKN005 BKN045 24.8 23 93% 15 30.16 0.0
04 08:45 E 10 10.00 Mostly Cloudy FEW003 BKN050 23 23 100% 13 30.16 0.0
04 07:45 E 10 7.00 Mostly Cloudy FEW002 BKN055 23 23 100% 13 30.16 0.0
04 06:45 E 13 7.00 Mostly Cloudy FEW002 BKN005 BKN048 24.8 23 93% 14 30.17 0.0
04 05:46 E 12 5.00 Fog/Mist BKN004 BKN046 24.8 23 93% 15 30.17 0.0
04 04:45 E 8 5.00 Fog/Mist FEW003 FEW006 BKN046 24.8 24.8 100% 17 30.17 0.0
04 03:45 NE 9 3.00 Fog/Mist BKN002 BKN046 24.8 24.8 100% 16 30.16 0.0
03 18:45 W 9 7.00 Light Showers Rain OVC006 30.2 28.4 93% 23 30.07 0.0
03 17:45 W 12 7.00 Overcast OVC005 30.2 28.4 93% 21 30.05 0.0
03 16:45 W 15 10.00 Mostly Cloudy BKN060 30.2 28.4 93% 20 30.03 0.0
03 15:45 W 13 10.00 Mostly Cloudy SCT050 BKN080 28.4 28.4 100% 19 30.02 0.0
03 14:45 W 12 10.00 Mostly Cloudy SCT050 BKN120 28.4 26.6 93% 19 29.99 0.0
03 13:45 W 20 7.00 Mostly Cloudy BKN005 BKN080 30.2 30.2 100% 19 29.96 0.0
03 12:45 W 22 7.00 Mostly Cloudy and Breezy BKN005 30.2 30.2 100% 18 29.93 0.0
03 11:45 W 20 7.00 Mostly Cloudy BKN090 28.4 28.4 100% 16 29.91 0.0
03 10:45 W 16 10.00 Partly Cloudy SCT110 30.2 30.2 100% 20 29.89 0.0
03 09:45 SW 10 10.00 Partly Cloudy SCT085 28.4 28.4 100% 20 29.86 0.0
03 08:45 SW 5 10.00 Mostly Cloudy BKN075 28.4 26.6 93% 24 29.85 0.0
03 07:45 SE 2 7.00 Mostly Cloudy BKN070 24.8 24.8 100% 29.84 0.0
03 06:45 Vrbl 3 3.00 Fog/Mist BKN055 BKN075 23 23 100% 29.83 0.0
03 05:46 Vrbl 1 3.00 Fog/Mist BKN055 BKN075 24.8 24.8 100% 29.82 0.0
03 04:48 SE 7 5.00 Fog/Mist BKN032 24.8 24.8 100% 18 29.8 0.0
02 18:45 E 3 7.00 Mostly Cloudy BKN008 26.6 26.6 100% 29.67 0.0
02 17:45 NE 5 7.00 Mostly Cloudy BKN006 26.6 26.6 100% 22 29.66 0.0
02 16:45 NE 8 7.00 Mostly Cloudy BKN006 26.6 26.6 100% 19 29.64 0.0
02 15:45 NE 10 7.00 Overcast OVC006 26.6 24.8 93% 18 29.62 0.0
02 14:45 E 12 7.00 Overcast OVC010 24.8 24.8 100% 15 29.6 0.0
02 13:45 E 14 7.00 Overcast OVC006 24.8 24.8 100% 14 29.58 0.0
02 12:45 E 14 5.00 Low Drifting Snow Fog/Mist OVC006 24.8 23 93% 14 29.57 0.0
02 11:45 E 16 5.00 Low Drifting Snow Fog/Mist OVC005 23 23 100% 11 29.55 0.0
02 10:45 E 18 3.00 Low Drifting Snow Fog/Mist OVC005 23 21.2 93% 10 29.53 0.0
02 08:45 E 20 2.00 Low Drifting Snow Fog/Mist OVC005 21.2 19.4 93% 7 29.51 0.0
02 07:45 E 17 2.00 Low Drifting Snow Fog/Mist OVC005 19.4 19.4 100% 5 29.51 0.0
02 06:45 E 18 2.00 Low Drifting Snow Fog/Mist OVC005 19.4 19.4 100% 5 29.5 0.0
02 05:45 E 21 2.00 Low Drifting Snow Fog/Mist and Breezy OVC005 21.2 19.4 93% 7 29.5 0.0
02 04:45 E 22 1.50 Low Drifting Snow Fog/Mist and Breezy OVC005 21.2 19.4 93% 6 29.51 0.0
02 03:47 E 22 1.50 Blowing Snow Fog/Mist and Breezy OVC006 21.2 19.4 93% 6 29.51 0.0
Date Time (akdt) Wind (mph) Vis. (mi.) Weather Sky Cond. Air Dwpt Max. Min. Relative Humidity Wind Chill (°F) Heat Index (°F) altimeter (in) sea level (mb) 1 hr 3 hr 6 hr
6 hour
Temperature (ºF) Pressure Precipitation (in)